SCP
3 4 4 3 2 3 3 3 3 3 4 5 5 4 5 3 1 0 0 0 0 0
3 3 2 2 2 2 3 3 2 2 3 4 5 5 3 1 0 0 0 0 0 0
2 3 3 3 2 2 2 1 0 2 3 4 4 2 0 0 0 0 0 0 0 0
2 2 2 2 2 2 2 1 1 0 2 2 0 0 0 0 0 0 0 0 0 0
2 1 2 2 2 3 2 1 0 0 0 0 0 0 0 0 0 0 0 0 0 0
1 0 1 2 2 2 0 0 0 0 0 0 0 0 0 0 0 0 0 0 0 0
2 2 1 1 2 0 0 0 0 0 0 0 0 0 0 0 0 0 0 0 0 0
2 3 2 1 1 0 0 0 0 0 0 0 0 0 0 0 0 0 0 0 0 0
2 3 1 0 0 0 0 0 0 0 0 0 0 0 0 0 0 0 0 0 0 0
2 2 1 1 0 0 0 0 0 0 0 0 0 0 0 0 0 0 0 0 -0 0
1 2 1 1 0 0 0 0 0 0 0 0 0 0 0 0 0 0 0 0 0 0
1 1 1 1 0 0 0 0 0 0 0 0 0 0 0 0 0 0 0 0 0 -0
1 1 0 0 0 0 0 0 0 0 0 0 0 0 0 0 0 0 0 0 -0 -0
0 0 0 0 0 0 0 0 0 0 0 0 0 0 0 0 0 0 0 0 0 0
Wind_Speed_500mb
47 57 65 68 64 79 79 78 82 78 72 69 61 57 47 47 45 41 37 30 21 18
42 46 51 59 54 71 77 70 69 79 69 61 58 60 51 49 46 37 35 31 27 20
43 40 46 49 54 62 67 66 39 57 65 66 63 60 60 51 42 38 37 32 27 20
38 39 48 51 56 53 59 63 37 39 67 70 65 67 60 53 47 40 34 31 27 18
49 30 31 39 45 53 44 51 54 80 72 70 72 66 59 54 46 39 35 34 29 24
45 28 30 29 30 33 34 49 71 108 107 88 78 67 63 56 53 50 46 40 32 26
47 43 35 31 29 34 40 53 24 59 45 62 63 62 55 57 57 52 43 37 30 27
43 47 40 39 40 42 36 44 47 62 56 59 53 59 58 56 56 51 46 41 38 31
27 53 42 38 45 44 40 44 50 63 55 43 47 56 58 62 64 63 56 43 23 30
30 46 43 47 50 46 40 39 34 42 52 64 74 74 77 58 62 52 51 45 45 45
40 50 49 48 52 54 49 43 48 43 50 55 57 59 58 60 48 50 56 55 53 43
44 52 58 62 65 59 50 48 44 45 55 50 65 66 58 61 66 61 58 53 46 39
52 62 73 72 71 63 55 49 44 49 62 60 68 60 56 61 66 64 60 53 50 46
54 66 66 71 80 63 55 49 49 59 75 74 71 63 57 57 57 59 61 57 54 49
Wind_Direction_500mb
223 227 229 231 228 220 216 214 215 205 198 198 191 197 196 191 195 193 189 196 206 207
223 228 228 228 225 223 224 216 215 205 193 192 186 195 191 194 196 188 185 187 200 206
224 232 229 229 234 234 234 230 259 202 191 186 183 186 196 194 187 179 180 180 188 174
219 239 232 231 234 233 238 234 230 175 191 188 184 183 192 191 180 181 170 169 173 161
220 216 224 235 242 240 238 234 242 230 209 194 185 191 191 182 175 169 158 153 151 158
218 198 229 244 243 224 207 205 184 178 191 188 184 187 179 173 168 159 154 149 147 152
215 217 222 234 222 216 212 190 178 162 169 181 194 181 175 166 158 152 146 137 129 125
216 201 207 221 211 205 204 201 198 193 197 189 180 184 178 171 158 146 134 124 127 117
232 190 203 211 205 203 196 188 187 181 189 192 193 181 173 165 152 146 140 127 137 139
231 189 200 209 201 192 184 180 184 182 181 174 163 160 164 168 158 158 158 154 159 146
205 197 196 194 185 174 167 173 169 174 170 165 172 174 173 163 157 155 146 149 149 148
203 189 187 178 180 178 181 174 172 172 175 170 163 165 163 148 156 154 152 149 146 147
207 197 192 186 178 173 176 169 174 171 171 156 158 164 154 160 164 157 151 146 144 143
205 194 192 184 180 176 168 167 163 161 158 153 156 150 163 178 166 155 146 144 144 133
Wind_Speed_850mb
47 57 65 68 64 79 79 78 82 78 72 69 61 57 47 47 45 41 37 30 21 18
42 46 51 59 54 71 77 70 69 79 69 61 58 60 51 49 46 37 35 31 27 20
43 40 46 49 54 62 67 66 39 57 65 66 63 60 60 51 42 38 37 32 27 20
38 39 48 51 56 53 59 63 37 39 67 70 65 67 60 53 47 40 34 31 27 18
49 30 31 39 45 53 44 51 54 80 72 70 72 66 59 54 46 39 35 34 29 24
45 28 30 29 30 33 34 49 71 108 107 88 78 67 63 56 53 50 46 40 32 26
47 43 35 31 29 34 40 53 24 59 45 62 63 62 55 57 57 52 43 37 30 27
43 47 40 39 40 42 36 44 47 62 56 59 53 59 58 56 56 51 46 41 38 31
27 53 42 38 45 44 40 44 50 63 55 43 47 56 58 62 64 63 56 43 23 30
30 46 43 47 50 46 40 39 34 42 52 64 74 74 77 58 62 52 51 45 45 45
40 50 49 48 52 54 49 43 48 43 50 55 57 59 58 60 48 50 56 55 53 43
44 52 58 62 65 59 50 48 44 45 55 50 65 66 58 61 66 61 58 53 46 39
52 62 73 72 71 63 55 49 44 49 62 60 68 60 56 61 66 64 60 53 50 46
54 66 66 71 80 63 55 49 49 59 75 74 71 63 57 57 57 59 61 57 54 49
Wind_Direction_850mb
223 227 229 231 228 220 216 214 215 205 198 198 191 197 196 191 195 193 189 196 206 207
223 228 228 228 225 223 224 216 215 205 193 192 186 195 191 194 196 188 185 187 200 206
224 232 229 229 234 234 234 230 259 202 191 186 183 186 196 194 187 179 180 180 188 174
219 239 232 231 234 233 238 234 230 175 191 188 184 183 192 191 180 181 170 169 173 161
220 216 224 235 242 240 238 234 242 230 209 194 185 191 191 182 175 169 158 153 151 158
218 198 229 244 243 224 207 205 184 178 191 188 184 187 179 173 168 159 154 149 147 152
215 217 222 234 222 216 212 190 178 162 169 181 194 181 175 166 158 152 146 137 129 125
216 201 207 221 211 205 204 201 198 193 197 189 180 184 178 171 158 146 134 124 127 117
232 190 203 211 205 203 196 188 187 181 189 192 193 181 173 165 152 146 140 127 137 139
231 189 200 209 201 192 184 180 184 182 181 174 163 160 164 168 158 158 158 154 159 146
205 197 196 194 185 174 167 173 169 174 170 165 172 174 173 163 157 155 146 149 149 148
203 189 187 178 180 178 181 174 172 172 175 170 163 165 163 148 156 154 152 149 146 147
207 197 192 186 178 173 176 169 174 171 171 156 158 164 154 160 164 157 151 146 144 143
205 194 192 184 180 176 168 167 163 161 158 153 156 150 163 178 166 155 146 144 144 133